Карточка аэропорта UATT

Внимание!
Информация на этой странице в стадии наполнения.
Если вы не увидели какой-то информации, или заметили неточность - пожалуйста сообщите нам!
Спасибо!
Команда RU-STAFF
Название аэропортаАктобе
Название аэропорта (англ.)Aktobe
Превышение738 ft. (224.9 m.)
Координаты50°14.748', 57°12.402'
Высота перехода10000ft
Эшелон переходаFL120, QNH<733:FL130
Коды ответчика3440-3447, 3540-3547
Зона ОрВДАктобе РПИ (UATT)
Данные METARUATT 072300Z 00000MPS 9999 SCT010 M20/M23 Q1030 NOSIG RMK QFE752/1003
Проноз погоды (TAF)UATT 071700Z 0718/0818 10002MPS 3100 BR BKN011 TXM13/0812Z TNM22/0802Z TEMPO 0718/0806 0700 FZFG VV002 TEMPO 0806/0812 02005MPS
NOTAMshow/hide NOTAM
AWOS   TABLE

Информация о ВПП

ВПП Длина ВПП (м.) Покрытие Курс ВПП Частота ILS
133202Бетон135111.7
313202Бетон315111.7

Диспетчерские позиции




Спутниковое изображение